SCP
0 0 0 0 0 0 0 0 0 0 0 0 0 0 0 0 0 0 0 0 0 0 0 0 0 0 0 0 0 0 0 0 0 0 0 0 0 0 0 0 0 0 0 0 0 0 0 0 0 0 0 -0 -0 -0
0 0 0 0 0 0 0 0 0 0 0 0 0 0 0 0 0 0 0 0 0 0 0 0 0 0 0 0 0 0 0 0 0 0 0 0 0 0 0 0 0 0 0 0 0 0 0 0 0 0 0 -0 0 -0
0 0 0 0 0 0 0 0 0 0 0 0 0 0 0 0 0 0 0 0 0 0 0 0 0 0 0 0 0 0 0 0 0 0 0 0 0 0 0 0 0 0 0 0 0 0 0 0 0 0 0 0 0 0
0 0 0 0 0 0 0 0 0 0 0 0 0 0 0 0 0 0 0 0 0 0 0 0 0 0 0 0 0 0 0 0 0 0 0 0 0 0 0 0 0 0 0 0 0 0 0 0 0 0 0 0 0 0
0 0 0 0 0 0 0 0 0 0 0 0 0 0 0 0 -0 0 0 0 0 0 0 0 0 0 0 0 0 0 0 0 0 0 0 0 0 0 0 0 0 0 0 0 0 0 0 0 0 0 0 0 0 0
0 0 0 0 0 0 0 0 0 0 0 0 0 0 0 0 0 0 0 0 0 0 0 0 0 0 0 0 0 0 0 0 0 0 0 0 0 0 0 0 0 0 0 0 0 0 0 0 0 0 0 0 0 0
0 0 0 0 0 0 0 0 0 0 0 0 0 0 0 0 0 0 0 0 0 0 0 0 0 0 0 0 0 0 0 0 0 0 0 0 0 0 0 0 0 0 0 0 0 0 0 0 0 0 0 0 0 0
0 0 0 0 0 0 0 0 0 0 0 0 0 0 0 0 0 0 0 0 0 0 0 0 0 0 0 0 0 0 0 0 0 0 0 0 0 0 0 0 0 0 0 0 0 0 0 0 0 0 0 0 0 0
0 0 0 0 0 0 0 0 0 0 0 0 0 0 0 0 0 0 0 0 0 0 0 0 0 0 0 0 0 0 0 0 0 0 0 0 0 0 0 0 0 0 0 0 0 0 0 0 0 0 0 0 0 0
0 0 0 0 0 0 0 0 0 0 0 0 0 0 0 0 0 0 0 0 0 0 0 0 0 0 0 0 0 0 0 0 0 0 0 0 0 0 0 0 0 0 0 0 0 0 0 0 0 0 0 0 0 0
0 0 0 0 0 0 0 0 0 0 0 0 0 0 0 0 0 0 0 0 0 0 0 0 0 0 0 0 0 0 0 0 0 0 0 0 0 0 0 0 0 0 0 0 0 0 0 0 0 0 0 0 0 0
0 0 0 0 0 0 0 0 0 0 0 0 0 0 0 0 0 0 0 0 0 0 0 0 0 0 0 0 0 0 0 0 0 0 0 0 0 0 0 0 0 0 0 0 0 0 0 0 0 0 0 0 0 0
-0 0 0 0 0 0 0 0 0 0 0 0 0 0 0 0 0 0 0 0 0 0 0 0 0 0 0 0 0 0 0 0 0 0 0 0 0 0 0 0 0 0 0 0 0 0 0 0 0 0 0 0 -0 -0
-0 0 0 0 0 0 0 0 0 0 0 0 0 0 0 0 0 0 0 0 0 0 0 0 0 0 0 0 0 0 0 0 0 0 0 0 0 0 0 0 0 0 0 0 0 0 0 0 0 -0 -0 -0 0 -0
0 0 0 0 0 0 0 0 0 0 0 0 0 0 0 0 0 0 0 0 0 0 0 0 0 0 0 0 0 0 0 0 0 0 0 0 0 0 0 0 0 0 0 0 0 0 0 -0 -0 -0 -0 0 0 -0
0 0 0 0 0 0 0 0 0 0 0 0 0 0 0 0 0 0 0 0 0 0 0 0 0 0 0 0 0 0 0 0 0 0 0 0 0 0 0 0 0 0 0 0 0 0 -0 -0 -0 0 0 0 0 -0
0 0 0 0 0 0 0 0 0 0 0 0 0 0 0 0 0 0 0 0 0 0 0 0 0 0 0 0 0 0 0 0 0 0 0 0 0 0 0 0 0 0 0 0 0 -0 -0 -0 -0 -0 0 -0 -0 -0
0 0 0 0 0 0 0 0 0 0 0 0 0 0 0 0 0 0 0 0 0 0 0 0 0 0 0 0 0 0 0 0 0 0 0 0 0 0 0 0 0 0 0 -0 -0 -0 -0 -0 -0 0 -0 -0 -0 -0
0 0 0 0 0 0 0 0 0 0 0 0 0 0 0 0 0 0 0 0 0 0 0 0 0 0 0 0 0 0 0 0 0 0 0 0 0 0 0 0 0 0 -0 -0 0 -0 -0 0 0 0 0 0 0 0
0 -0 -0 -0 0 0 0 0 0 0 0 0 0 0 0 0 0 0 0 0 0 0 0 0 0 0 0 0 0 0 0 0 0 0 0 0 0 0 0 0 0 -0 -0 -0 0 0 0 0 0 0 0 0 -0 -0
0 0 -0 0 0 0 0 0 0 0 0 0 0 0 0 0 0 0 0 0 0 0 0 0 0 0 0 0 0 0 0 0 0 0 0 0 0 0 0 0 -0 -0 0 0 0 0 0 0 0 0 0 -0 -0 -0
0 0 0 0 0 0 0 0 0 0 0 0 0 0 0 0 0 0 0 0 0 0 0 0 0 0 0 0 0 0 0 0 0 0 0 0 0 0 0 0 0 0 0 0 0 0 0 0 0 0 0 -0 -0 0
0 0 0 0 0 0 0 0 0 0 0 0 0 0 0 0 0 0 0 0 0 0 0 0 0 0 0 0 0 0 0 0 0 0 0 0 0 0 0 0 0 0 0 0 0 0 0 0 0 0 0 0 0 0
0 0 0 0 0 0 0 0 0 0 0 0 0 0 0 0 0 0 0 0 0 0 0 0 0 0 0 0 0 0 0 0 0 0 0 0 0 0 0 0 0 0 0 0 0 0 0 0 0 0 0 0 0 0
-0 0 0 0 0 0 0 0 0 0 0 0 0 0 0 0 0 0 0 0 0 0 0 0 0 0 0 0 0 0 0 0 0 0 0 0 0 0 0 0 0 0 0 0 0 0 0 0 0 0 0 0 0 0
0 0 0 0 0 0 0 0 0 0 0 0 0 0 0 0 0 0 0 0 0 0 0 -0 0 0 -0 -0 -0 0 0 0 0 0 0 0 0 0 0 0 0 0 -0 -0 -0 0 0 0 0 0 0 0 0 0
-0 0 0 0 0 0 0 0 0 0 0 0 0 0 0 0 0 0 0 0 -0 -0 -0 -0 -0 0 0 -0 -0 0 0 0 0 0 0 0 0 0 0 0 0 -0 0 0 0 0 0 0 0 0 0 0 0 0
-0 0 -0 0 0 0 0 0 0 0 0 0 0 0 0 -0 -0 0 0 -0 -0 -0 -0 -0 -0 0 0 0 0 0 0 0 0 0 0 0 -0 -0 -0 -0 -0 -0 0 0 0 0 0 0 0 0 0 0 0 0
0 0 -0 -0 -0 -0 -0 0 0 0 0 0 0 0 -0 0 -0 -0 -0 -0 0 0 0 0 0 0 -0 -0 -0 -0 -0 0 0 0 0 0 0 0 0 0 0 0 0 0 0 0 0 0 0 0 0 0 0 0
-0 0 -0 -0 -0 -0 -0 -0 -0 -0 -0 -0 -0 0 0 0 0 -0 -0 -0 -0 -0 -0 0 0 0 0 -0 -0 0 0 0 0 0 0 0 0 0 0 0 0 0 0 0 0 0 0 0 0 0 0 0 0 0
0 0 0 -0 -0 0 -0 -0 -0 -0 -0 -0 -0 -0 0 0 0 0 0 0 0 0 0 0 0 0 0 0 0 0 0 0 0 0 0 0 0 0 0 0 0 0 0 0 0 0 0 0 0 0 0 0 0 0
0 -0 -0 -0 -0 0 0 0 -0 -0 -0 -0 -0 -0 -0 -0 -0 -0 0 0 0 0 0 0 0 -0 0 0 0 0 0 0 0 0 0 0 0 0 0 0 0 0 0 0 0 0 0 0 0 0 0 0 0 0
-0 -0 0 0 0 0 0 0 -0 0 -0 -0 -0 0 0 0 0 0 0 0 0 0 0 0 0 0 0 0 0 0 0 0 0 0 0 0 0 0 0 0 0 0 0 0 0 0 0 0 0 0 0 0 0 0
Wind_Speed_500mb
55 55 53 53 55 50 53 51 48 50 45 50 53 54 54 55 53 50 60 57 60 42 56 45 39 33 19 15 7 6 4 8 4 8 7 7 7 10 2 6 8 8 6 6 2 1 16 9 15 4 13 35 39 19
64 61 57 61 56 56 58 62 46 43 48 53 57 57 62 57 57 53 58 55 50 59 29 31 39 55 70 63 51 27 23 17 25 4 1 4 4 2 8 10 9 6 13 10 15 12 16 58 45 49 36 42 34 30
65 64 66 66 66 61 60 60 56 55 52 53 52 50 61 57 57 59 61 53 44 48 54 60 54 78 80 68 52 38 30 33 30 41 11 7 13 7 10 11 18 16 40 14 1 21 27 38 56 60 66 49 45 49
66 67 70 68 66 63 61 63 56 52 54 55 59 56 51 56 56 54 61 59 53 20 12 41 48 52 48 44 56 73 87 61 47 45 23 10 9 20 9 15 16 21 9 13 25 32 42 58 59 56 41 45 57 59
68 70 72 71 68 69 68 68 61 56 50 51 51 50 52 54 54 54 59 61 58 49 8 15 32 39 27 34 48 53 64 69 49 26 12 18 17 12 8 10 20 29 35 25 29 52 46 47 65 54 41 46 48 48
68 70 69 69 69 68 66 65 64 63 55 51 48 48 52 51 43 47 47 69 67 65 23 8 35 52 56 48 58 69 69 66 54 29 15 21 41 18 9 13 30 51 54 64 49 78 66 67 59 45 45 42 43 48
65 66 67 66 65 65 63 61 58 56 56 52 43 44 50 51 46 54 14 9 24 59 26 6 7 20 27 34 55 63 58 44 39 34 23 28 21 18 10 27 34 48 54 61 56 53 45 47 26 34 37 47 59 69
60 58 59 61 64 61 60 60 59 53 50 48 48 46 48 47 47 58 66 51 28 51 20 5 8 3 12 13 7 21 28 32 32 27 12 11 17 14 15 22 48 51 43 36 30 26 27 37 42 44 49 57 66 75
57 58 59 62 59 59 56 54 53 49 49 44 41 41 41 49 53 55 53 51 57 44 10 11 9 7 18 15 14 7 17 7 15 10 12 14 8 12 14 18 14 16 7 22 29 31 33 36 47 54 59 63 69 80
48 50 50 53 60 59 54 52 52 46 45 41 38 29 16 24 36 32 24 25 34 20 23 8 20 5 16 21 10 10 15 7 8 9 12 9 12 34 12 9 9 14 18 25 32 30 47 53 55 60 68 67 63 71
51 49 47 44 40 41 47 50 53 45 39 42 24 22 15 15 24 18 13 15 14 6 11 11 31 12 25 6 10 20 6 5 6 8 9 2 6 6 8 7 10 13 17 22 26 33 38 47 59 70 80 80 82 84
45 48 49 50 48 50 52 53 52 50 55 35 17 19 20 16 15 12 9 2 5 12 9 7 16 27 15 23 9 9 7 5 8 4 7 5 7 9 2 4 10 16 22 26 31 40 45 50 55 64 73 79 79 78
48 45 41 40 40 44 49 41 56 54 47 37 24 20 17 16 15 15 15 5 1 5 16 13 3 9 12 16 4 5 8 8 6 5 8 8 8 4 6 10 15 24 31 37 42 46 52 58 60 61 69 68 67 68
47 45 42 38 36 36 35 44 48 49 43 24 16 11 10 8 9 8 10 10 13 12 30 27 9 5 6 5 4 6 5 7 4 2 12 4 2 10 14 20 28 35 39 47 51 54 58 60 62 58 55 54 56 59
36 37 38 36 38 40 40 37 37 43 21 15 13 11 12 10 0 5 21 23 15 27 26 9 4 8 3 5 6 5 6 7 11 11 4 5 12 19 24 28 33 40 47 52 53 55 56 54 53 54 47 46 46 49
27 35 39 34 34 36 38 40 44 51 18 15 10 7 9 7 1 8 11 12 24 27 19 11 4 3 6 4 7 12 10 12 8 5 5 10 17 21 26 30 34 39 43 48 48 47 46 44 43 44 43 42 40 36
25 33 33 28 29 31 30 36 30 17 14 11 4 11 13 7 12 15 17 19 27 23 6 5 10 17 3 2 6 8 10 4 10 5 4 12 19 22 25 30 33 36 39 39 40 37 37 35 35 36 39 37 30 25
18 18 21 27 28 29 32 33 18 8 7 13 3 7 14 12 12 16 16 26 17 15 13 7 8 5 10 12 8 5 7 10 6 4 10 11 13 17 22 29 30 31 33 33 31 31 30 31 30 32 32 28 24 21
15 23 30 35 34 20 9 7 8 8 7 10 13 10 17 19 17 13 14 18 16 16 21 10 6 6 7 5 6 9 10 3 2 8 10 6 11 15 19 22 24 26 27 27 25 25 25 21 21 24 25 22 22 22
11 12 21 47 44 9 9 10 9 13 5 9 9 11 14 13 14 15 14 16 16 11 6 4 7 5 6 10 8 4 3 4 5 6 8 6 8 12 17 22 24 23 23 23 21 23 24 21 21 21 22 21 20 22
13 18 17 32 20 15 13 7 13 10 15 12 17 5 11 11 5 2 4 11 4 3 2 4 9 13 7 4 4 4 5 5 5 3 0 7 11 15 18 19 20 23 29 32 33 33 33 32 29 26 24 23 22 22
9 10 9 12 11 11 16 16 14 11 9 13 10 6 8 2 3 6 5 2 2 3 4 7 11 6 5 5 5 5 4 5 4 4 6 8 9 10 16 20 21 26 30 33 35 36 36 33 30 27 26 26 23 22
10 6 8 10 10 11 7 8 8 8 7 2 6 6 5 5 3 2 2 4 2 7 11 10 9 10 10 9 9 10 11 11 10 9 8 6 5 7 9 13 19 21 23 26 28 28 29 29 29 29 27 24 22 21
10 9 15 14 19 4 5 12 7 8 8 7 6 4 4 4 0 4 4 5 6 14 13 13 15 17 15 15 16 16 15 14 11 9 6 3 3 6 10 13 14 19 22 22 22 22 22 24 25 25 25 25 25 25
7 20 15 12 15 11 10 8 10 8 5 4 7 3 4 2 3 2 4 4 16 20 19 18 19 17 15 17 15 12 9 6 4 3 1 3 7 9 11 13 13 13 16 17 18 20 21 21 22 22 22 21 21 21
15 16 10 2 9 7 1 6 3 4 5 3 1 5 2 5 5 7 6 6 13 25 24 22 22 21 18 14 10 7 5 4 7 9 8 9 11 13 11 11 11 13 16 19 21 21 23 24 25 25 25 25 25 24
10 7 10 13 4 7 8 8 5 6 5 4 4 3 4 4 6 7 3 7 11 16 19 19 17 14 10 9 7 5 6 8 9 9 12 14 14 12 10 9 9 11 15 19 23 25 27 29 29 30 30 28 32 33
8 11 6 11 9 8 8 3 3 3 4 2 3 2 9 11 7 1 4 13 15 20 22 21 20 17 14 11 7 6 8 10 12 10 10 10 8 8 7 8 11 15 18 22 25 28 32 35 38 37 37 37 35 36
9 9 8 8 6 7 2 5 5 2 5 5 6 4 6 7 6 4 4 15 21 24 23 22 21 18 14 11 9 8 9 10 12 12 12 11 9 8 11 14 18 23 28 30 30 34 37 40 43 48 47 46 44 41
10 14 5 3 4 2 2 1 2 3 5 7 8 10 11 11 11 15 16 19 26 25 22 21 22 20 16 16 14 13 13 15 16 17 17 14 16 20 21 23 26 29 32 35 35 34 36 41 43 44 46 45 44 44
9 6 3 2 3 0 1 5 12 14 11 8 15 14 15 14 9 6 13 19 23 27 30 29 28 23 20 18 16 18 18 16 17 18 22 27 29 28 28 29 30 31 34 38 40 43 46 49 49 51 50 48 45 45
8 4 3 3 4 3 6 6 4 4 4 5 5 6 7 8 8 2 1 11 21 24 22 22 21 14 14 17 19 21 20 19 20 23 27 29 30 31 33 34 36 39 44 49 52 55 57 59 61 60 59 57 53 50
4 4 4 5 3 3 7 13 4 6 5 4 3 4 4 5 8 2 1 1 4 9 13 17 17 16 16 15 13 13 14 15 17 21 25 29 33 39 45 48 50 53 57 61 62 63 64 65 67 65 63 60 58 56
Wind_Direction_500mb
258 257 257 258 258 253 257 262 258 254 258 251 255 257 252 247 246 243 248 240 237 246 252 247 250 236 231 207 176 207 14 255 71 197 163 221 177 222 152 235 184 154 151 230 56 136 273 342 351 118 243 291 280 270
254 252 256 258 256 257 255 254 257 263 268 266 260 253 254 249 246 241 246 250 254 245 260 260 255 254 243 248 249 234 228 188 207 121 271 93 265 8 168 245 198 265 203 230 192 213 303 310 292 288 282 278 248 271
259 259 256 253 253 250 254 256 256 259 263 262 266 262 252 254 246 236 239 247 246 249 266 264 253 262 255 245 238 234 241 229 235 232 208 212 232 135 238 231 252 243 244 231 352 263 258 267 279 282 286 267 269 289
258 259 259 259 256 255 254 251 248 252 256 258 261 256 254 259 253 245 240 238 235 236 248 265 269 249 260 252 246 246 248 249 255 244 233 214 218 191 227 241 224 240 136 228 253 266 273 273 268 277 276 264 277 288
261 263 261 259 257 257 256 255 249 248 249 260 263 254 255 257 256 249 242 242 238 231 262 281 277 266 248 234 241 248 250 246 242 232 224 242 241 229 224 243 243 237 243 247 254 267 267 275 281 286 280 283 283 279
263 263 261 258 256 255 254 253 250 245 245 251 257 257 257 258 253 247 257 250 241 237 249 248 266 251 247 253 252 246 243 238 227 235 245 240 239 208 234 250 262 259 245 247 254 267 272 274 279 285 286 285 285 290
264 263 261 258 254 250 250 251 247 246 245 245 253 260 261 255 244 232 220 232 221 223 227 236 274 232 230 243 252 246 237 229 223 233 238 242 242 223 247 259 262 261 261 267 267 263 267 272 266 284 294 293 294 296
263 262 262 257 252 248 248 246 246 242 244 244 246 257 259 260 252 245 241 249 234 196 216 217 260 243 194 185 217 231 220 217 233 238 233 229 248 228 251 257 264 266 266 260 257 270 275 284 293 295 300 305 304 304
258 258 259 258 255 248 245 246 242 238 241 243 247 254 258 246 242 243 250 249 227 211 214 188 168 233 190 194 182 183 204 216 211 215 223 204 213 228 232 266 273 276 289 286 293 297 297 299 305 307 308 310 310 310
262 262 265 255 246 239 239 239 235 233 240 238 235 231 229 226 243 242 218 216 210 210 215 179 184 208 193 185 224 163 196 224 211 221 151 220 238 246 242 237 246 280 295 305 318 316 317 312 314 311 313 314 310 308
266 264 258 250 242 243 247 236 234 224 229 222 203 205 219 193 191 195 209 195 181 223 223 229 216 233 238 171 216 209 200 196 198 247 167 294 270 143 169 225 262 284 301 311 307 304 304 304 309 311 311 312 314 315
268 262 257 256 252 250 249 235 230 217 211 213 204 183 184 198 206 194 187 259 176 205 203 162 225 211 210 206 188 204 189 167 207 98 96 254 238 107 150 290 297 298 303 304 306 310 309 307 308 309 310 314 317 318
263 265 261 245 246 246 243 235 215 211 214 204 183 181 181 190 214 191 184 205 272 197 180 178 218 201 185 205 218 200 179 215 104 73 219 225 102 104 344 322 310 314 315 313 314 314 313 314 316 316 315 319 320 319
253 250 253 250 246 242 243 228 215 205 195 190 176 193 189 210 235 180 176 184 193 174 168 162 137 203 189 187 166 205 214 103 136 207 232 176 150 326 334 328 321 321 320 318 320 320 319 319 318 319 320 322 321 324
243 247 241 239 238 235 227 218 210 209 203 201 188 209 190 164 92 195 153 138 144 155 141 111 97 204 180 225 201 128 172 233 204 220 210 199 310 323 328 326 325 323 320 318 322 320 320 321 321 321 327 325 327 323
255 245 236 237 234 227 217 211 210 214 204 220 192 150 58 83 278 184 149 137 147 152 140 112 123 172 233 206 183 214 141 218 235 193 180 295 318 326 324 323 322 320 319 319 320 321 321 324 325 323 326 331 325 325
247 238 231 227 219 218 218 217 213 198 167 147 147 134 119 103 145 155 156 166 160 158 166 142 174 213 67 223 241 188 209 190 174 188 294 313 314 324 323 324 327 324 323 324 324 327 327 328 329 332 329 332 333 335
221 227 227 219 208 215 197 187 185 133 86 66 306 124 110 95 121 132 147 155 160 158 142 178 115 142 195 187 248 216 186 181 275 292 327 318 328 331 329 328 333 333 333 332 330 330 335 338 336 338 337 341 349 357
222 240 250 217 211 214 121 99 118 101 84 101 106 106 93 101 96 120 143 158 150 133 130 108 108 202 227 183 178 168 174 202 286 329 337 355 346 346 345 345 350 349 346 343 343 345 343 342 343 349 351 359 8 12
250 253 147 165 188 142 91 59 68 78 99 113 95 75 92 89 116 119 133 147 146 124 93 170 214 172 131 149 148 171 212 248 302 343 130 64 33 22 13 13 10 8 12 16 18 15 14 21 21 17 15 15 19 21
76 87 110 139 111 81 87 67 70 77 111 91 114 71 87 123 145 146 152 126 112 127 265 173 137 140 145 198 235 211 224 242 248 230 177 86 59 42 37 32 31 32 34 31 32 33 32 28 26 27 28 30 30 31
136 114 83 60 79 76 72 45 94 108 85 100 90 84 75 51 12 31 44 322 193 130 136 152 169 198 202 185 176 185 205 186 174 141 107 92 72 54 38 33 33 36 36 34 33 32 32 32 33 34 38 41 40 42
135 123 59 48 93 62 58 57 76 43 93 139 102 58 19 4 37 22 345 249 222 186 172 168 167 163 157 151 148 147 138 125 118 118 117 101 60 30 9 11 18 22 29 28 26 27 29 30 34 35 37 37 38 39
106 56 33 40 36 74 51 31 58 73 80 48 66 56 316 234 24 50 242 262 184 172 171 168 167 164 159 148 140 132 127 124 125 124 117 90 4 349 352 356 354 4 8 8 6 8 11 16 20 23 26 26 27 28
92 11 16 9 25 49 43 21 2 50 70 9 82 286 261 280 61 18 237 256 185 185 182 179 179 178 172 158 151 144 141 144 162 192 235 333 343 345 344 343 347 349 357 3 4 5 5 4 3 2 0 359 359 2
68 6 43 318 350 76 210 73 48 165 144 73 230 284 312 87 63 252 236 202 195 193 191 185 178 177 179 178 183 197 220 260 287 290 279 285 296 309 318 337 352 357 6 11 11 9 6 3 1 359 356 352 351 349
66 343 29 33 55 96 69 48 87 80 84 154 237 43 70 66 260 254 242 195 177 180 173 174 174 175 184 195 201 230 268 288 299 312 306 298 297 292 295 318 341 355 2 0 357 357 357 356 354 351 348 347 341 340
76 28 78 346 45 45 125 94 93 151 210 184 105 124 162 194 238 278 223 182 172 175 179 182 186 190 192 204 234 266 289 304 312 309 320 318 306 308 299 314 328 332 333 334 334 335 335 335 334 333 333 334 334 330
45 11 356 13 17 37 114 142 206 159 147 173 145 246 254 242 235 260 250 199 188 186 191 194 195 200 213 225 246 274 294 311 318 320 322 329 332 322 325 320 319 318 316 319 322 322 323 324 324 322 323 320 320 319
13 4 41 39 72 332 351 97 82 173 222 246 277 284 274 270 276 252 236 217 209 205 201 202 211 223 230 244 256 275 299 304 306 305 307 315 315 315 311 308 306 306 306 310 315 316 316 316 315 313 311 310 309 307
347 345 8 43 225 67 319 291 282 272 260 263 253 256 275 300 307 263 227 215 211 211 215 220 227 238 247 261 280 289 289 291 298 300 300 302 306 309 308 304 302 300 301 305 309 312 315 316 317 316 314 313 312 307
341 36 105 6 299 315 316 334 294 274 248 251 249 261 285 292 286 339 330 228 228 229 232 235 241 254 269 268 267 280 295 299 302 302 302 306 309 311 308 304 300 298 298 299 301 303 305 307 310 312 311 309 307 306
323 339 339 322 343 18 350 342 18 332 257 267 258 286 281 276 252 40 34 5 196 194 207 223 233 240 252 273 286 291 296 304 304 305 307 308 311 312 307 302 298 295 295 295 297 298 300 302 303 304 304 303 302 301
Wind_Speed_850mb
55 55 53 53 55 50 53 51 48 50 45 50 53 54 54 55 53 50 60 57 60 42 56 45 39 33 19 15 7 6 4 8 4 8 7 7 7 10 2 6 8 8 6 6 2 1 16 9 15 4 13 35 39 19
64 61 57 61 56 56 58 62 46 43 48 53 57 57 62 57 57 53 58 55 50 59 29 31 39 55 70 63 51 27 23 17 25 4 1 4 4 2 8 10 9 6 13 10 15 12 16 58 45 49 36 42 34 30
65 64 66 66 66 61 60 60 56 55 52 53 52 50 61 57 57 59 61 53 44 48 54 60 54 78 80 68 52 38 30 33 30 41 11 7 13 7 10 11 18 16 40 14 1 21 27 38 56 60 66 49 45 49
66 67 70 68 66 63 61 63 56 52 54 55 59 56 51 56 56 54 61 59 53 20 12 41 48 52 48 44 56 73 87 61 47 45 23 10 9 20 9 15 16 21 9 13 25 32 42 58 59 56 41 45 57 59
68 70 72 71 68 69 68 68 61 56 50 51 51 50 52 54 54 54 59 61 58 49 8 15 32 39 27 34 48 53 64 69 49 26 12 18 17 12 8 10 20 29 35 25 29 52 46 47 65 54 41 46 48 48
68 70 69 69 69 68 66 65 64 63 55 51 48 48 52 51 43 47 47 69 67 65 23 8 35 52 56 48 58 69 69 66 54 29 15 21 41 18 9 13 30 51 54 64 49 78 66 67 59 45 45 42 43 48
65 66 67 66 65 65 63 61 58 56 56 52 43 44 50 51 46 54 14 9 24 59 26 6 7 20 27 34 55 63 58 44 39 34 23 28 21 18 10 27 34 48 54 61 56 53 45 47 26 34 37 47 59 69
60 58 59 61 64 61 60 60 59 53 50 48 48 46 48 47 47 58 66 51 28 51 20 5 8 3 12 13 7 21 28 32 32 27 12 11 17 14 15 22 48 51 43 36 30 26 27 37 42 44 49 57 66 75
57 58 59 62 59 59 56 54 53 49 49 44 41 41 41 49 53 55 53 51 57 44 10 11 9 7 18 15 14 7 17 7 15 10 12 14 8 12 14 18 14 16 7 22 29 31 33 36 47 54 59 63 69 80
48 50 50 53 60 59 54 52 52 46 45 41 38 29 16 24 36 32 24 25 34 20 23 8 20 5 16 21 10 10 15 7 8 9 12 9 12 34 12 9 9 14 18 25 32 30 47 53 55 60 68 67 63 71
51 49 47 44 40 41 47 50 53 45 39 42 24 22 15 15 24 18 13 15 14 6 11 11 31 12 25 6 10 20 6 5 6 8 9 2 6 6 8 7 10 13 17 22 26 33 38 47 59 70 80 80 82 84
45 48 49 50 48 50 52 53 52 50 55 35 17 19 20 16 15 12 9 2 5 12 9 7 16 27 15 23 9 9 7 5 8 4 7 5 7 9 2 4 10 16 22 26 31 40 45 50 55 64 73 79 79 78
48 45 41 40 40 44 49 41 56 54 47 37 24 20 17 16 15 15 15 5 1 5 16 13 3 9 12 16 4 5 8 8 6 5 8 8 8 4 6 10 15 24 31 37 42 46 52 58 60 61 69 68 67 68
47 45 42 38 36 36 35 44 48 49 43 24 16 11 10 8 9 8 10 10 13 12 30 27 9 5 6 5 4 6 5 7 4 2 12 4 2 10 14 20 28 35 39 47 51 54 58 60 62 58 55 54 56 59
36 37 38 36 38 40 40 37 37 43 21 15 13 11 12 10 0 5 21 23 15 27 26 9 4 8 3 5 6 5 6 7 11 11 4 5 12 19 24 28 33 40 47 52 53 55 56 54 53 54 47 46 46 49
27 35 39 34 34 36 38 40 44 51 18 15 10 7 9 7 1 8 11 12 24 27 19 11 4 3 6 4 7 12 10 12 8 5 5 10 17 21 26 30 34 39 43 48 48 47 46 44 43 44 43 42 40 36
25 33 33 28 29 31 30 36 30 17 14 11 4 11 13 7 12 15 17 19 27 23 6 5 10 17 3 2 6 8 10 4 10 5 4 12 19 22 25 30 33 36 39 39 40 37 37 35 35 36 39 37 30 25
18 18 21 27 28 29 32 33 18 8 7 13 3 7 14 12 12 16 16 26 17 15 13 7 8 5 10 12 8 5 7 10 6 4 10 11 13 17 22 29 30 31 33 33 31 31 30 31 30 32 32 28 24 21
15 23 30 35 34 20 9 7 8 8 7 10 13 10 17 19 17 13 14 18 16 16 21 10 6 6 7 5 6 9 10 3 2 8 10 6 11 15 19 22 24 26 27 27 25 25 25 21 21 24 25 22 22 22
11 12 21 47 44 9 9 10 9 13 5 9 9 11 14 13 14 15 14 16 16 11 6 4 7 5 6 10 8 4 3 4 5 6 8 6 8 12 17 22 24 23 23 23 21 23 24 21 21 21 22 21 20 22
13 18 17 32 20 15 13 7 13 10 15 12 17 5 11 11 5 2 4 11 4 3 2 4 9 13 7 4 4 4 5 5 5 3 0 7 11 15 18 19 20 23 29 32 33 33 33 32 29 26 24 23 22 22
9 10 9 12 11 11 16 16 14 11 9 13 10 6 8 2 3 6 5 2 2 3 4 7 11 6 5 5 5 5 4 5 4 4 6 8 9 10 16 20 21 26 30 33 35 36 36 33 30 27 26 26 23 22
10 6 8 10 10 11 7 8 8 8 7 2 6 6 5 5 3 2 2 4 2 7 11 10 9 10 10 9 9 10 11 11 10 9 8 6 5 7 9 13 19 21 23 26 28 28 29 29 29 29 27 24 22 21
10 9 15 14 19 4 5 12 7 8 8 7 6 4 4 4 0 4 4 5 6 14 13 13 15 17 15 15 16 16 15 14 11 9 6 3 3 6 10 13 14 19 22 22 22 22 22 24 25 25 25 25 25 25
7 20 15 12 15 11 10 8 10 8 5 4 7 3 4 2 3 2 4 4 16 20 19 18 19 17 15 17 15 12 9 6 4 3 1 3 7 9 11 13 13 13 16 17 18 20 21 21 22 22 22 21 21 21
15 16 10 2 9 7 1 6 3 4 5 3 1 5 2 5 5 7 6 6 13 25 24 22 22 21 18 14 10 7 5 4 7 9 8 9 11 13 11 11 11 13 16 19 21 21 23 24 25 25 25 25 25 24
10 7 10 13 4 7 8 8 5 6 5 4 4 3 4 4 6 7 3 7 11 16 19 19 17 14 10 9 7 5 6 8 9 9 12 14 14 12 10 9 9 11 15 19 23 25 27 29 29 30 30 28 32 33
8 11 6 11 9 8 8 3 3 3 4 2 3 2 9 11 7 1 4 13 15 20 22 21 20 17 14 11 7 6 8 10 12 10 10 10 8 8 7 8 11 15 18 22 25 28 32 35 38 37 37 37 35 36
9 9 8 8 6 7 2 5 5 2 5 5 6 4 6 7 6 4 4 15 21 24 23 22 21 18 14 11 9 8 9 10 12 12 12 11 9 8 11 14 18 23 28 30 30 34 37 40 43 48 47 46 44 41
10 14 5 3 4 2 2 1 2 3 5 7 8 10 11 11 11 15 16 19 26 25 22 21 22 20 16 16 14 13 13 15 16 17 17 14 16 20 21 23 26 29 32 35 35 34 36 41 43 44 46 45 44 44
9 6 3 2 3 0 1 5 12 14 11 8 15 14 15 14 9 6 13 19 23 27 30 29 28 23 20 18 16 18 18 16 17 18 22 27 29 28 28 29 30 31 34 38 40 43 46 49 49 51 50 48 45 45
8 4 3 3 4 3 6 6 4 4 4 5 5 6 7 8 8 2 1 11 21 24 22 22 21 14 14 17 19 21 20 19 20 23 27 29 30 31 33 34 36 39 44 49 52 55 57 59 61 60 59 57 53 50
4 4 4 5 3 3 7 13 4 6 5 4 3 4 4 5 8 2 1 1 4 9 13 17 17 16 16 15 13 13 14 15 17 21 25 29 33 39 45 48 50 53 57 61 62 63 64 65 67 65 63 60 58 56
Wind_Direction_850mb
258 257 257 258 258 253 257 262 258 254 258 251 255 257 252 247 246 243 248 240 237 246 252 247 250 236 231 207 176 207 14 255 71 197 163 221 177 222 152 235 184 154 151 230 56 136 273 342 351 118 243 291 280 270
254 252 256 258 256 257 255 254 257 263 268 266 260 253 254 249 246 241 246 250 254 245 260 260 255 254 243 248 249 234 228 188 207 121 271 93 265 8 168 245 198 265 203 230 192 213 303 310 292 288 282 278 248 271
259 259 256 253 253 250 254 256 256 259 263 262 266 262 252 254 246 236 239 247 246 249 266 264 253 262 255 245 238 234 241 229 235 232 208 212 232 135 238 231 252 243 244 231 352 263 258 267 279 282 286 267 269 289
258 259 259 259 256 255 254 251 248 252 256 258 261 256 254 259 253 245 240 238 235 236 248 265 269 249 260 252 246 246 248 249 255 244 233 214 218 191 227 241 224 240 136 228 253 266 273 273 268 277 276 264 277 288
261 263 261 259 257 257 256 255 249 248 249 260 263 254 255 257 256 249 242 242 238 231 262 281 277 266 248 234 241 248 250 246 242 232 224 242 241 229 224 243 243 237 243 247 254 267 267 275 281 286 280 283 283 279
263 263 261 258 256 255 254 253 250 245 245 251 257 257 257 258 253 247 257 250 241 237 249 248 266 251 247 253 252 246 243 238 227 235 245 240 239 208 234 250 262 259 245 247 254 267 272 274 279 285 286 285 285 290
264 263 261 258 254 250 250 251 247 246 245 245 253 260 261 255 244 232 220 232 221 223 227 236 274 232 230 243 252 246 237 229 223 233 238 242 242 223 247 259 262 261 261 267 267 263 267 272 266 284 294 293 294 296
263 262 262 257 252 248 248 246 246 242 244 244 246 257 259 260 252 245 241 249 234 196 216 217 260 243 194 185 217 231 220 217 233 238 233 229 248 228 251 257 264 266 266 260 257 270 275 284 293 295 300 305 304 304
258 258 259 258 255 248 245 246 242 238 241 243 247 254 258 246 242 243 250 249 227 211 214 188 168 233 190 194 182 183 204 216 211 215 223 204 213 228 232 266 273 276 289 286 293 297 297 299 305 307 308 310 310 310
262 262 265 255 246 239 239 239 235 233 240 238 235 231 229 226 243 242 218 216 210 210 215 179 184 208 193 185 224 163 196 224 211 221 151 220 238 246 242 237 246 280 295 305 318 316 317 312 314 311 313 314 310 308
266 264 258 250 242 243 247 236 234 224 229 222 203 205 219 193 191 195 209 195 181 223 223 229 216 233 238 171 216 209 200 196 198 247 167 294 270 143 169 225 262 284 301 311 307 304 304 304 309 311 311 312 314 315
268 262 257 256 252 250 249 235 230 217 211 213 204 183 184 198 206 194 187 259 176 205 203 162 225 211 210 206 188 204 189 167 207 98 96 254 238 107 150 290 297 298 303 304 306 310 309 307 308 309 310 314 317 318
263 265 261 245 246 246 243 235 215 211 214 204 183 181 181 190 214 191 184 205 272 197 180 178 218 201 185 205 218 200 179 215 104 73 219 225 102 104 344 322 310 314 315 313 314 314 313 314 316 316 315 319 320 319
253 250 253 250 246 242 243 228 215 205 195 190 176 193 189 210 235 180 176 184 193 174 168 162 137 203 189 187 166 205 214 103 136 207 232 176 150 326 334 328 321 321 320 318 320 320 319 319 318 319 320 322 321 324
243 247 241 239 238 235 227 218 210 209 203 201 188 209 190 164 92 195 153 138 144 155 141 111 97 204 180 225 201 128 172 233 204 220 210 199 310 323 328 326 325 323 320 318 322 320 320 321 321 321 327 325 327 323
255 245 236 237 234 227 217 211 210 214 204 220 192 150 58 83 278 184 149 137 147 152 140 112 123 172 233 206 183 214 141 218 235 193 180 295 318 326 324 323 322 320 319 319 320 321 321 324 325 323 326 331 325 325
247 238 231 227 219 218 218 217 213 198 167 147 147 134 119 103 145 155 156 166 160 158 166 142 174 213 67 223 241 188 209 190 174 188 294 313 314 324 323 324 327 324 323 324 324 327 327 328 329 332 329 332 333 335
221 227 227 219 208 215 197 187 185 133 86 66 306 124 110 95 121 132 147 155 160 158 142 178 115 142 195 187 248 216 186 181 275 292 327 318 328 331 329 328 333 333 333 332 330 330 335 338 336 338 337 341 349 357
222 240 250 217 211 214 121 99 118 101 84 101 106 106 93 101 96 120 143 158 150 133 130 108 108 202 227 183 178 168 174 202 286 329 337 355 346 346 345 345 350 349 346 343 343 345 343 342 343 349 351 359 8 12
250 253 147 165 188 142 91 59 68 78 99 113 95 75 92 89 116 119 133 147 146 124 93 170 214 172 131 149 148 171 212 248 302 343 130 64 33 22 13 13 10 8 12 16 18 15 14 21 21 17 15 15 19 21
76 87 110 139 111 81 87 67 70 77 111 91 114 71 87 123 145 146 152 126 112 127 265 173 137 140 145 198 235 211 224 242 248 230 177 86 59 42 37 32 31 32 34 31 32 33 32 28 26 27 28 30 30 31
136 114 83 60 79 76 72 45 94 108 85 100 90 84 75 51 12 31 44 322 193 130 136 152 169 198 202 185 176 185 205 186 174 141 107 92 72 54 38 33 33 36 36 34 33 32 32 32 33 34 38 41 40 42
135 123 59 48 93 62 58 57 76 43 93 139 102 58 19 4 37 22 345 249 222 186 172 168 167 163 157 151 148 147 138 125 118 118 117 101 60 30 9 11 18 22 29 28 26 27 29 30 34 35 37 37 38 39
106 56 33 40 36 74 51 31 58 73 80 48 66 56 316 234 24 50 242 262 184 172 171 168 167 164 159 148 140 132 127 124 125 124 117 90 4 349 352 356 354 4 8 8 6 8 11 16 20 23 26 26 27 28
92 11 16 9 25 49 43 21 2 50 70 9 82 286 261 280 61 18 237 256 185 185 182 179 179 178 172 158 151 144 141 144 162 192 235 333 343 345 344 343 347 349 357 3 4 5 5 4 3 2 0 359 359 2
68 6 43 318 350 76 210 73 48 165 144 73 230 284 312 87 63 252 236 202 195 193 191 185 178 177 179 178 183 197 220 260 287 290 279 285 296 309 318 337 352 357 6 11 11 9 6 3 1 359 356 352 351 349
66 343 29 33 55 96 69 48 87 80 84 154 237 43 70 66 260 254 242 195 177 180 173 174 174 175 184 195 201 230 268 288 299 312 306 298 297 292 295 318 341 355 2 0 357 357 357 356 354 351 348 347 341 340
76 28 78 346 45 45 125 94 93 151 210 184 105 124 162 194 238 278 223 182 172 175 179 182 186 190 192 204 234 266 289 304 312 309 320 318 306 308 299 314 328 332 333 334 334 335 335 335 334 333 333 334 334 330
45 11 356 13 17 37 114 142 206 159 147 173 145 246 254 242 235 260 250 199 188 186 191 194 195 200 213 225 246 274 294 311 318 320 322 329 332 322 325 320 319 318 316 319 322 322 323 324 324 322 323 320 320 319
13 4 41 39 72 332 351 97 82 173 222 246 277 284 274 270 276 252 236 217 209 205 201 202 211 223 230 244 256 275 299 304 306 305 307 315 315 315 311 308 306 306 306 310 315 316 316 316 315 313 311 310 309 307
347 345 8 43 225 67 319 291 282 272 260 263 253 256 275 300 307 263 227 215 211 211 215 220 227 238 247 261 280 289 289 291 298 300 300 302 306 309 308 304 302 300 301 305 309 312 315 316 317 316 314 313 312 307
341 36 105 6 299 315 316 334 294 274 248 251 249 261 285 292 286 339 330 228 228 229 232 235 241 254 269 268 267 280 295 299 302 302 302 306 309 311 308 304 300 298 298 299 301 303 305 307 310 312 311 309 307 306
323 339 339 322 343 18 350 342 18 332 257 267 258 286 281 276 252 40 34 5 196 194 207 223 233 240 252 273 286 291 296 304 304 305 307 308 311 312 307 302 298 295 295 295 297 298 300 302 303 304 304 303 302 301